Hermosillo, Mexico

12:13 AM MST on June 29, 2017 (GMT -0700)
Gen Ignacio Pesqueira Garcia

Weather History for MMHO - December, 2013

Change the Weather History Date:

Tuesday, December 3, 2013

  Actual Average Record
Temperature  
Mean Temperature 69 °F -  
Max Temperature 82 °F 74 °F 88 °F (2014)
Min Temperature 56 °F 44 °F 41 °F (1996)
Cooling Degree Days 4    
Growing Degree Days 19 (Base 50)    
Moisture  
Dew Point 44 °F    
Average Humidity 34    
Maximum Humidity 51    
Minimum Humidity 14    
Precipitation  
Precipitation 0.00 in - - ()
Sea Level Pressure  
Sea Level Pressure 29.84 in    
Wind  
Wind Speed 3 mph ()    
Max Wind Speed 12 mph    
Max Gust Speed 18 mph    
Visibility 9.2 miles    
Events      
Averages and records for this station are not official NWS values.
T = Trace of Precipitation, MM = Missing Value Source: Averaged Metar Reports

Daily Weather History Graph

Daily Weather History Graph

Search for Another Location

Airport or City:

Trip Planner

Search our weather history database for the weather conditions in past years. The results will help you decide how hot, cold, wet, or windy it might be!

Date:

Astronomy

Dec. 03, 2013 Rise Set
Actual Time 7:02 AM MST 5:25 PM MST
Civil Twilight 6:36 AM MST 5:51 PM MST
Nautical Twilight 6:07 AM MST 6:21 PM MST
Astronomical Twilight 5:38 AM MST 6:49 PM MST
Moon 7:37 AM MST (12/3) 6:31 PM MST (12/3)
Length of Visible Light 11h 15m
Length of Day
10h 23m
New Moon, 1% of the Moon is Illuminated
Dec 3
New Moon
Dec 9
First Quarter
Dec 17
Full
Dec 25
Last Quarter
Jan 1
New

Hourly Weather History & Observations

Time (MST) Temp. Dew Point Humidity Pressure Visibility Wind Dir Wind Speed Gust Speed Precip Events Conditions
1:40 AM 63 °F 47 °F 46% 29.89 in 5 mi ENE 4.5 mph - -  
6:41 AM 59.0 °F 41.0 °F 51% 29.86 in 10.0 mi ENE 4.6 mph - N/A   Overcast
7:40 AM 58 °F 45 °F 51% 29.88 in 7 mi NNE 2.2 mph - -   Mostly Cloudy
7:46 AM 60.8 °F 41.0 °F 48% 29.88 in 10.0 mi Calm Calm - N/A   Overcast
8:41 AM 66.2 °F 39.2 °F 37% 29.91 in 10.0 mi Calm Calm - N/A   Overcast
9:51 AM 71.6 °F 41.0 °F 33% 29.91 in 10.0 mi East 6.9 mph - N/A   Overcast
10:40 AM 70 °F 48 °F 34% 29.91 in 7 mi East 2.2 mph - -   Mostly Cloudy
10:46 AM 73.4 °F 41.0 °F 31% 29.89 in 10.0 mi Calm Calm - N/A   Overcast
11:41 AM 77.0 °F 37.4 °F 24% 29.89 in 10.0 mi Calm Calm - N/A   Mostly Cloudy
1:40 PM 81 °F 40 °F 14% 29.79 in 7 mi SSW 2.2 mph - -   Partly Cloudy
1:47 PM 82.4 °F 37.4 °F 20% 29.78 in 10.0 mi SSE 8.1 mph - N/A   Mostly Cloudy
2:45 PM 82.4 °F 41.0 °F 23% 29.81 in 12.0 mi South 6.9 mph 18.4 mph N/A   Mostly Cloudy
3:41 PM 80.6 °F 44.6 °F 28% 29.80 in 12.0 mi South 11.5 mph - N/A   Mostly Cloudy
4:35 PM 77 °F 50 °F 28% 29.77 in 7 mi SW 2.2 mph - -   Mostly Cloudy
4:42 PM 78.8 °F 48.2 °F 34% 29.80 in 12.0 mi South 8.1 mph - N/A   Overcast
5:43 PM 75.2 °F 48.2 °F 38% 29.79 in 10.0 mi South 3.5 mph - N/A   Overcast
6:41 PM 73.4 °F 48.2 °F 41% 29.79 in 10.0 mi Calm Calm - N/A   Overcast
7:40 PM 74 °F 49 °F 30% 29.78 in 5 mi WSW 6.7 mph - -   Mostly Cloudy
7:42 PM 73.4 °F 46.4 °F 38% 29.82 in 10.0 mi SSE 3.5 mph - N/A   Overcast
8:40 PM 73.4 °F 46.4 °F 38% 29.82 in 10.0 mi South 5.8 mph - N/A   Overcast